When you browse on this site, cookies collect data to enhance your experience and personalize the content and advertising you see.
Visit our Privacy Policy to learn more. By continuing to use the site, you agree to this use of cookies and data.
  • En España
  • Lista de países
  • Para 7 días
  • Temperatura del agua
  • El tiempo en el mapa
  • Informadores
  • user-avatar
    Iniciar sesión

    Tiempo cada hora Escuintla

    Hoy, 21 Febrero, Viernes

    Tiempo Temperatura Precipitaciones Viento Presión Humedad
    00:00 +25°C° 0 mm 2 mps 732 mmHg 73%
    07:00 +27°C° 0 mm 2 mps 731 mmHg 63%
    08:00 +29°C° 0 mm 2 mps 732 mmHg 54%
    09:00 +31°C° 0 mm 2 mps 733 mmHg 46%
    10:00 +34°C° 0 mm 2 mps 732 mmHg 42%
    11:00 +36°C° 0 mm 3 mps 732 mmHg 37%
    12:00 +37°C° 0 mm 3 mps 732 mmHg 33%
    13:00 +37°C° 0 mm 3 mps 731 mmHg 34%
    14:00 +37°C° 0 mm 3 mps 730 mmHg 35%
    15:00 +37°C° 0 mm 3 mps 730 mmHg 36%
    16:00 +34°C° 0 mm 3 mps 730 mmHg 45%
    17:00 +31°C° 0 mm 2 mps 730 mmHg 53%
    18:00 +28°C° 0 mm 1 mps 730 mmHg 62%
    19:00 +27°C° 0 mm 1 mps 731 mmHg 63%
    20:00 +26°C° 0 mm 2 mps 732 mmHg 64%
    21:00 +25°C° 0 mm 2 mps 732 mmHg 66%
    22:00 +25°C° 0 mm 2 mps 732 mmHg 65%
    23:00 +25°C° 0 mm 2 mps 732 mmHg 65%

    Mañana, 22 Febrero, Sábado

    Tiempo Temperatura Precipitaciones Viento Presión Humedad
    00:00 +25°C° 0 mm 2 mps 732 mmHg 65%
    01:00 +25°C° 0 mm 2 mps 732 mmHg 65%
    02:00 +24°C° 0 mm 2 mps 731 mmHg 65%
    03:00 +24°C° 0 mm 2 mps 731 mmHg 65%
    04:00 +24°C° 0 mm 2 mps 731 mmHg 66%
    05:00 +24°C° 0 mm 2 mps 731 mmHg 66%
    06:00 +24°C° 0 mm 2 mps 731 mmHg 67%
    07:00 +26°C° 0 mm 2 mps 732 mmHg 59%
    08:00 +29°C° 0 mm 2 mps 732 mmHg 51%
    09:00 +31°C° 0 mm 2 mps 733 mmHg 43%
    10:00 +34°C° 0 mm 2 mps 733 mmHg 39%
    11:00 +35°C° 0 mm 2 mps 732 mmHg 36%
    12:00 +37°C° 0 mm 2 mps 732 mmHg 32%
    13:00 +37°C° 0 mm 3 mps 731 mmHg 33%
    14:00 +36°C° 0 mm 3 mps 731 mmHg 35%
    15:00 +36°C° 0 mm 3 mps 730 mmHg 36%
    16:00 +34°C° 0 mm 2 mps 730 mmHg 44%
    17:00 +31°C° 0 mm 2 mps 730 mmHg 52%
    18:00 +29°C° 0 mm 1 mps 730 mmHg 60%
    19:00 +28°C° 0 mm 1 mps 731 mmHg 62%
    20:00 +27°C° 0 mm 2 mps 731 mmHg 64%
    21:00 +26°C° 0 mm 2 mps 732 mmHg 67%
    22:00 +26°C° 0 mm 2 mps 732 mmHg 66%
    23:00 +25°C° 0 mm 2 mps 732 mmHg 66%

    Pasado mañana, 23 Febrero, Domingo

    Tiempo Temperatura Precipitaciones Viento Presión Humedad
    00:00 +25°C° 0 mm 2 mps 732 mmHg 66%
    01:00 +25°C° 0 mm 2 mps 731 mmHg 66%
    02:00 +24°C° 0 mm 2 mps 730 mmHg 67%
    03:00 +24°C° 0 mm 2 mps 730 mmHg 67%
    04:00 +24°C° 0 mm 2 mps 730 mmHg 67%
    05:00 +24°C° 0 mm 2 mps 730 mmHg 68%
    06:00 +23°C° 0 mm 2 mps 731 mmHg 68%
    07:00 +26°C° 0 mm 2 mps 731 mmHg 60%
    08:00 +28°C° 0 mm 1 mps 732 mmHg 52%
    09:00 +31°C° 0 mm 1 mps 732 mmHg 44%
    10:00 +34°C° 0 mm 2 mps 732 mmHg 40%
    11:00 +35°C° 0 mm 2 mps 731 mmHg 37%
    12:00 +37°C° 0 mm 2 mps 731 mmHg 33%
    13:00 +36°C° 0 mm 3 mps 730 mmHg 36%
    14:00 +36°C° 0 mm 3 mps 729 mmHg 39%
    15:00 +35°C° 0 mm 3 mps 729 mmHg 42%
    16:00 +33°C° 0.1 mm 3 mps 729 mmHg 53%
    17:00 +30°C° 0.1 mm 2 mps 729 mmHg 64%
    18:00 +28°C° 0.1 mm 1 mps 729 mmHg 74%
    19:00 +27°C° 0 mm 1 mps 729 mmHg 78%
    20:00 +26°C° 0 mm 1 mps 730 mmHg 82%
    21:00 +25°C° 0 mm 1 mps 730 mmHg 86%
    22:00 +24°C° 0 mm 1 mps 730 mmHg 84%
    23:00 +24°C° 0 mm 1 mps 730 mmHg 83%

    24 Febrero, Lunes

    Tiempo Temperatura Precipitaciones Viento Presión Humedad
    00:00 +24°C° 0 mm 2 mps 729 mmHg 81%
    01:00 +24°C° 0 mm 2 mps 729 mmHg 78%
    02:00 +24°C° 0 mm 2 mps 729 mmHg 76%
    03:00 +23°C° 0 mm 2 mps 728 mmHg 73%
    04:00 +23°C° 0 mm 1 mps 729 mmHg 73%
    05:00 +23°C° 0 mm 1 mps 729 mmHg 72%
    06:00 +23°C° 0 mm 1 mps 729 mmHg 72%
    07:00 +25°C° 0 mm 1 mps 730 mmHg 65%
    08:00 +28°C° 0 mm 1 mps 730 mmHg 59%
    09:00 +30°C° 0 mm 1 mps 731 mmHg 52%
    10:00 +32°C° 0 mm 1 mps 730 mmHg 49%
    11:00 +34°C° 0 mm 2 mps 730 mmHg 45%
    12:00 +36°C° 0 mm 3 mps 729 mmHg 42%
    13:00 +34°C° 0.1 mm 3 mps 728 mmHg 49%
    14:00 +33°C° 0.1 mm 3 mps 727 mmHg 56%
    15:00 +31°C° 0.1 mm 3 mps 727 mmHg 63%
    16:00 +29°C° 0.2 mm 3 mps 727 mmHg 70%
    17:00 +28°C° 0.2 mm 2 mps 727 mmHg 77%
    18:00 +27°C° 0.2 mm 1 mps 727 mmHg 84%
    19:00 +26°C° 0.1 mm 1 mps 728 mmHg 86%
    20:00 +26°C° 0.1 mm 1 mps 728 mmHg 89%
    21:00 +23°C° 0.1 mm 0 mps 729 mmHg 92%
    22:00 +23°C° 0 mm 0 mps 729 mmHg 92%
    23:00 +22°C° 0 mm 0 mps 728 mmHg 92%

    25 Febrero, Martes

    Tiempo Temperatura Precipitaciones Viento Presión Humedad
    00:00 +22°C° 0 mm 0 mps 728 mmHg 92%
    01:00 +24°C° 0 mm 1 mps 728 mmHg 91%
    02:00 +23°C° 0 mm 1 mps 728 mmHg 91%
    03:00 +23°C° 0 mm 1 mps 727 mmHg 90%
    04:00 +23°C° 0 mm 1 mps 727 mmHg 89%
    05:00 +23°C° 0 mm 1 mps 728 mmHg 88%
    06:00 +22°C° 0 mm 1 mps 728 mmHg 87%
    07:00 +25°C° 0 mm 1 mps 728 mmHg 79%
    08:00 +27°C° 0 mm 1 mps 729 mmHg 70%
    09:00 +30°C° 0 mm 1 mps 730 mmHg 61%
    10:00 +31°C° 0 mm 2 mps 729 mmHg 55%
    11:00 +34°C° 0 mm 2 mps 729 mmHg 50%
    12:00 +35°C° 0 mm 3 mps 729 mmHg 44%
    13:00 +34°C° 0 mm 3 mps 728 mmHg 48%
    14:00 +33°C° 0 mm 3 mps 727 mmHg 52%
    15:00 +31°C° 0 mm 3 mps 727 mmHg 56%
    16:00 +30°C° 0.1 mm 3 mps 727 mmHg 62%
    17:00 +29°C° 0.1 mm 2 mps 727 mmHg 68%
    18:00 +28°C° 0.1 mm 1 mps 727 mmHg 74%
    19:00 +27°C° 0 mm 1 mps 728 mmHg 78%
    20:00 +26°C° 0 mm 1 mps 728 mmHg 82%
    21:00 +25°C° 0 mm 1 mps 729 mmHg 87%
    22:00 +24°C° 0 mm 1 mps 729 mmHg 86%
    23:00 +24°C° 0 mm 1 mps 729 mmHg 86%

    26 Febrero, Miércoles

    Tiempo Temperatura Precipitaciones Viento Presión Humedad
    00:00 +24°C° 0 mm 1 mps 729 mmHg 86%
    01:00 +23°C° 0 mm 1 mps 729 mmHg 85%
    02:00 +23°C° 0 mm 1 mps 728 mmHg 85%
    03:00 +23°C° 0 mm 1 mps 728 mmHg 85%
    04:00 +23°C° 0 mm 1 mps 728 mmHg 84%
    05:00 +23°C° 0 mm 1 mps 729 mmHg 84%
    06:00 +23°C° 0 mm 1 mps 729 mmHg 84%
    07:00 +26°C° 0 mm 1 mps 730 mmHg 75%
    08:00 +28°C° 0 mm 1 mps 730 mmHg 65%
    09:00 +31°C° 0 mm 1 mps 731 mmHg 56%
    10:00 +32°C° 0.1 mm 1 mps 731 mmHg 52%
    11:00 +34°C° 0.1 mm 2 mps 731 mmHg 48%
    12:00 +36°C° 0.1 mm 2 mps 730 mmHg 44%
    13:00 +35°C° 0.9 mm 2 mps 729 mmHg 50%
    14:00 +32°C° 0.9 mm 2 mps 729 mmHg 56%
    15:00 +31°C° 0.9 mm 2 mps 728 mmHg 62%
    16:00 +30°C° 1.9 mm 2 mps 728 mmHg 69%
    17:00 +28°C° 1.9 mm 1 mps 728 mmHg 76%
    18:00 +27°C° 1.9 mm 1 mps 728 mmHg 83%
    19:00 +26°C° 0.6 mm 1 mps 729 mmHg 84%
    20:00 +26°C° 0.6 mm 1 mps 729 mmHg 85%
    21:00 +25°C° 0.6 mm 2 mps 730 mmHg 86%
    22:00 +25°C° 0.1 mm 2 mps 730 mmHg 84%
    23:00 +24°C° 0.1 mm 2 mps 730 mmHg 83%
    Mostrar más